Regional Weather Roundup
Issued by NWS

Home | Current Version | Previous Version | Graphics & Text | Print | Product List | Glossary On
Versions: 1 2 3 4 5 6 7 8 9 10 11 12 13 14 15 16 17 18 19 20 21 22 23 24 25 26 27 28 29 30 31 32 33 34 35 36 37 38 39 40 41 42 43 44 45 46 47 48 49 50
000
ASUS45 KSLC 241810
RWRUT

UTAH REGIONAL WEATHER ROUNDUP
NATIONAL WEATHER SERVICE SALT LAKE CITY UT
1200 PM MDT SUN MAY 24 2015

UTZ001>011-023>025-241900-

NORTHERN UTAH

CITY           SKY/WX    TMP DP  RH WIND       PRES   REMARKS
BRIGHAM CITY   CLOUDY    59  43  55 W5        29.95F
HILL AFB       CLOUDY    57  46  67 S9        29.96S
LOGAN          PTSUNNY   58  44  60 NW3       29.94F
OGDEN          PTSUNNY   57  46  66 SW5       29.95S
PROVO AIRPORT  PTSUNNY   55  45  67 W5        29.98S
SALT LAKE CITY PTSUNNY   58  49  72 NW7       29.96S
VERNAL         LGT RAIN  48  42  80 E8        29.96S
WENDOVER       CLOUDY    61  48  63 NE10      29.96S
HEBER CITY     LGT RAIN  52  41  66 W7        29.97S
WEST JORDAN    CLOUDY    57  46  67 CALM      29.97F

$$

UTZ012>022-026-027-241900-

SOUTHERN/CENTRAL UTAH

CITY           SKY/WX    TMP DP  RH WIND       PRES   REMARKS
BLANDING       CLOUDY    54  43  66 SW5       30.06S
BRYCE CANYON   PTSUNNY   50  37  61 W16       30.05S
CEDAR CITY     LGT RAIN  55  45  68 E5        29.99S
DELTA          PTSUNNY   58  42  53 CALM      29.97F
HANKSVILLE     MOSUNNY   61  43  51 S3        29.96F
MILFORD        MOSUNNY   61  43  51 N8        29.97F
MOAB/CYNLANDS  PTSUNNY   60  42  51 CALM      29.93S
PRICE          CLOUDY    56  36  47 SW6       29.96F
ST GEORGE      PTCLDY    64  48  55 S5        29.96S
KANAB          PTSUNNY   57  48  72 S8        30.02F

$$

REGIONAL REPORTS     COLORADO/ARIZONA

CITY           SKY/WX    TMP DP  RH WIND       PRES   REMARKS
CRAIG, CO      LGT RAIN  46  41  82 VRB5      29.97S
GRAND JUNCTION PTSUNNY   57  42  57 VRB5      29.94S
RIFLE          CLOUDY    52  38  58 W14       29.95S
MONTROSE       MOSUNNY   56  35  45 NW5       29.97F
CORTEZ         CLOUDY    51  41  68 W8        30.01S
PAGE, AZ       CLOUDY    59  50  72 S5        29.97S
GRAND CANYON   LGT RAIN  46  41  82 SW9       30.08R
KINGMAN        MOSUNNY   71  37  28 W10       29.97S
FLAGSTAFF      CLOUDY    50  36  58 SW13      30.08S

$$

REGIONAL REPORTS    NEVADA/IDAHO/WYOMING

CITY           SKY/WX    TMP DP  RH WIND       PRES   REMARKS
LAS VEGAS, NV  PTSUNNY   73  48  41 CALM      29.88S
ELY            PTSUNNY   53  44  71 MISG      30.04S
ELKO           PTSUNNY   55  49  80 SW8       30.01F
POCATELLO, ID  PTSUNNY   59  50  72 N5        29.98S
BURLEY         CLOUDY    58  48  69 SW5       29.96F
EVANSTON, WY   PTSUNNY   50  37  61 SW10      29.99S
ROCK SPRINGS   LGT RAIN  34  33  96 S5        29.99S WCI  30
KEMMERER       PTSUNNY   52  39  62 W20G28    29.96F

$$



USA.gov is the U.S. government's official web portal to all federal, state and local government web resources and services.